Valmeinier, France 16 day weather forecast

Slopes altitude range -1 m - -1m

Number of lifts: -1 Pistes: -1km

In some cases the lift and piste totals shown are for the ski domain (e.g. Three Valleys) rather than individual resort (e.g. Courchevel)

Overview

The 16 day weather forecast is fully updated 4 times every day.

    • Sat 20 OCT 2018
    • Sat 20
    • 2C 11C
    • Sun 21 OCT 2018
    • Sun 21
    • 2C 12C
    • Mon 22 OCT 2018
    • Mon 22
    • 0C 8C
    • Tue 23 OCT 2018
    • Tue 23
    • 1C 9C
    • Wed 24 OCT 2018
    • Wed 24
    • 2C 11C
    • Thu 25 OCT 2018
    • Thu 25
    • 3C 14C
    • Fri 26 OCT 2018
    • Fri 26
    • 2C 10C
    • Sat 27 OCT 2018
    • Sat 27
    • -3C 2C
    • Sun 28 OCT 2018
    • Sun 28
    • -4C 0C
    • Mon 29 OCT 2018
    • Mon 29
    • -6C 1C
    • Tue 30 OCT 2018
    • Tue 30
    • -1C 5C
    • Wed 31 OCT 2018
    • Wed 31
    • 2C 5C
    • Thu 01 NOV 2018
    • Thu 01
    • 1C 2C
    • Fri 02 NOV 2018
    • Fri 02
    • -3C 3C
    • Sat 03 NOV 2018
    • Sat 03
    • -4C 4C
    • Sun 04 NOV 2018
    • Sun 04
    • -1C 6C

Date:

Time Type 0°C level Temp Chill Snow Cloud Speed Gust Dir Press
12:00 3371m 11°C 11_1 0cm 69% 1mph 2mph 1023mB
15:00 3371m 11°C 11_3 0cm 9% 3mph 3mph 1023mB
18:00 3567m 11°C 11_2 0cm 4% 2mph 2mph 1024mB
21:00 3645m 4°C 4_3 0cm 0% 3mph 3mph 1025mB
0:00 3681m 3°C 3_1 0cm 0% 1mph 2mph 1024mB
3:00 3718m 2°C 2_2 0cm 0% 2mph 3mph 1023mB
6:00 3813m 2°C 2_3 0cm 0% 3mph 4mph 1022mB
9:00 3918m 2°C 2_5 0cm 20% 5mph 6mph 1021mB
12:00 3962m 12°C 12_6 0cm 42% 6mph 6mph 1019mB
15:00 4006m 13°C 13_7 0cm 22% 7mph 6mph 1017mB
18:00 3972m 13°C 13_5 0cm 11% 5mph 6mph 1018mB
21:00 3894m 4°C 4_6 0cm 2% 6mph 7mph 1020mB
0:00 3213m 3°C 3_5 0cm 4% 5mph 7mph 1021mB
3:00 3070m 1°C 1_3 0cm 3% 3mph 3mph 1021mB
6:00 2508m 0°C 0_1 0cm 2% 1mph 1mph 1022mB
9:00 2942m 0°C 0_2 0cm 4% 2mph 2mph 1023mB
12:00 2996m 8°C 8_3 0cm 4% 3mph 2mph 1021mB
15:00 2997m 8°C 8_8 0cm 7% 8mph 7mph 1020mB
18:00 3327m 8°C 8_6 0cm 3% 6mph 7mph 1023mB
21:00 3252m 1°C 1_3 0cm 0% 3mph 4mph 1024mB
0:00 3172m 1°C 1_4 0cm 2% 4mph 5mph 1025mB
3:00 3140m 1°C 1_2 0cm 0% 2mph 2mph 1025mB
6:00 3246m 1°C 1_3 0cm 0% 3mph 5mph 1026mB
9:00 3597m 1°C 1_5 0cm 1% 5mph 5mph 1025mB
12:00 3568m 9°C 9_6 0cm 1% 6mph 5mph 1024mB
15:00 3592m 9°C 9_10 0cm 0% 10mph 9mph 1022mB
18:00 3654m 9°C 9_8 0cm 3% 8mph 9mph 1024mB
21:00 3702m 1°C 1_6 0cm 50% 6mph 7mph 1025mB
0:00 3712m 1°C 1_6 0cm 30% 6mph 8mph 1024mB
3:00 3883m 2°C 2_6 0cm 0% 6mph 7mph 1023mB
6:00 4006m 2°C 2_6 0cm 0% 6mph 7mph 1023mB
9:00 4197m 2°C 2_7 0cm 0% 7mph 8mph 1022mB
12:00 4220m 11°C 11_8 0cm 0% 8mph 7mph 1020mB
15:00 4403m 11°C 11_9 0cm 0% 9mph 9mph 1019mB
18:00 4432m 11°C 11_6 0cm 0% 6mph 8mph 1020mB
21:00 4456m 3°C 3_3 0cm 17% 3mph 4mph 1020mB
0:00 4421m 3°C 3_2 0cm 33% 2mph 2mph 1020mB
3:00 4377m 3°C 3_2 0cm 33% 2mph 3mph 1020mB
6:00 4324m 3°C 3_2 0cm 19% 2mph 4mph 1020mB
9:00 4264m 3°C 3_3 0cm 20% 3mph 4mph 1020mB
12:00 4180m 14°C 14_5 0cm 27% 5mph 5mph 1019mB
15:00 4194m 14°C 14_4 0cm 12% 4mph 5mph 1018mB
18:00 4300m 14°C 14_2 0cm 6% 2mph 3mph 1018mB
21:00 4324m 4°C 4_2 0cm 0% 2mph 3mph 1019mB
0:00 4233m 3°C 3_3 0cm 2% 3mph 3mph 1018mB
3:00 4009m 2°C 2_3 0cm 49% 3mph 4mph 1017mB
6:00 3835m 2°C 2_3 0cm 24% 3mph 5mph 1016mB
9:00 3618m 2°C 2_5 0cm 18% 5mph 6mph 1015mB
12:00 3265m 10°C 10_7 0cm 20% 7mph 8mph 1014mB
15:00 3150m 10°C 10_7 0cm 40% 7mph 8mph 1012mB
18:00 3025m 10°C 10_5 0cm 51% 5mph 6mph 1012mB
21:00 2823m 3°C 3_5 0cm 60% 5mph 6mph 1012mB
0:00 2664m 2°C 2_6 0cm 70% 6mph 7mph 1010mB
3:00 2583m 2°C 2_6 1cm 78% 6mph 7mph 1009mB
6:00 2491m 1°C 1_6 1cm 81% 6mph 7mph 1008mB
9:00 2179m 0°C 0_9 4cm 98% 9mph 10mph 1008mB
12:00 1845m 2°C 2_9 3cm 98% 9mph 11mph 1007mB
15:00 1798m -2°C -2_10 1cm 84% 10mph 11mph 1005mB
18:00 1242m -2°C -2_9 1cm 78% 9mph 12mph 1006mB
21:00 1451m -3°C -3_6 0cm 12% 6mph 8mph 1006mB
0:00 1481m -3°C -3_6 0cm 24% 6mph 9mph 1006mB
3:00 1309m -4°C -4_5 0cm 29% 5mph 6mph 1006mB
6:00 1282m -4°C -4_4 0cm 30% 4mph 4mph 1007mB
9:00 1754m -4°C -4_6 1cm 93% 6mph 7mph 1007mB
12:00 1793m 0°C 0_6 1cm 96% 6mph 7mph 1007mB
15:00 1468m -1°C -1_6 1cm 100% 6mph 8mph 1008mB
18:00 1265m -1°C -1_3 2cm 100% 3mph 5mph 1009mB
21:00 1284m -4°C -4_2 4cm 100% 2mph 3mph 1010mB
0:00 983m -6°C -6_2 2cm 95% 2mph 3mph 1010mB
3:00 955m -6°C -6_2 0cm 100% 2mph 3mph 1011mB
6:00 1030m -7°C -7_2 0cm 99% 2mph 3mph 1012mB
9:00 1752m -6°C -6_3 0cm 88% 3mph 3mph 1014mB
12:00 1868m 1°C 1_4 0cm 51% 4mph 4mph 1015mB
15:00 1806m 1°C 1_5 0cm 47% 5mph 6mph 1017mB
18:00 947m 1°C 1_2 0cm 48% 2mph 3mph 1021mB
21:00 898m -6°C -6_3 0cm 7% 3mph 4mph 1024mB
0:00 999m -7°C -7_4 0cm 31% 4mph 5mph 1024mB
3:00 1186m -6°C -6_4 0cm 94% 4mph 5mph 1024mB
6:00 1468m -6°C -6_4 0cm 89% 4mph 4mph 1023mB
Afternoon 0.270833mm 0 2534m 5°C 5_5 2cm 88% 5mph 8mph 1022mB
Morning 0.015625mm 0 3115m 1°C 1_4 0cm 69% 4mph 5mph 1019mB
Afternoon 3.19271mm 1.125 3382m 5°C 5_6 0cm 100% 6mph 11mph 1008mB
Morning 0.953125mm 0.5625 2043m 1°C 1_8 8cm 84% 8mph 13mph 1009mB
Afternoon 1.4375mm 0.0625 2013m 2°C 2_8 12cm 98% 8mph 12mph 1014mB
Morning 0.0104167mm 0 1764m -2°C -2_10 0cm 52% 10mph 14mph 1020mB
Afternoon 0mm 0 1542m 3°C 3_9 0cm 17% 9mph 13mph 1024mB
Morning 0mm 0 1272m -4°C -4_6 0cm 14% 6mph 7mph 1027mB
Afternoon 0mm 0 1959m 4°C 4_5 0cm 36% 5mph 5mph 1025mB
Morning 0mm 0 2083m -1°C -1_4 0cm 17% 4mph 5mph 1023mB
Afternoon 0mm 0 2314m 6°C 6_4 0cm 5% 4mph 5mph 1020mB
Morning 0mm 0 2203m 0°C 0_5 0cm 0% 5mph 6mph 1018mB

16 day outlook at a glance

Forecast issued: 21/10/2018 03:49:22

Chat

Your comments and questions. In a resort? Let us know what it's like!


Characters left 250

For terms and conditions see Readers Comments on the Cookie and privacy policy page.